Terminal Aerodrome Forecast
Issued by NWS Louisville, KY

Home | Current Version | Previous Version | Text Only | Print | Product List | Glossary On
Versions: 1 2 3 4 5 6 7 8 9 10 11 12 13 14 15
000
FTUS43 KLMK 241722
TAFBWG
TAF
KBWG 241722Z 2418/2518 34006G16KT 3SM SHRA BR BKN013
     FM242000 30008KT P6SM BKN024
     FM242300 28006KT P6SM BKN035
     FM250900 23008KT P6SM BKN018
     FM251700 27009G19KT P6SM SCT040=

USA.gov is the U.S. government's official web portal to all federal, state and local government web resources and services.